Location: *
(43.9900°N, 3.4811°E)
Time: 08:11:42
(UTC+00:00)

Cosmos 2322 Rocket - Pass Details

Date: 25 August 2019
Orbit: 834 x 849 km, 71.0° (Epoch: 21 September)

Event Time Altitude Azimuth Distance (km) Brightness Sun altitude
Rises 20:48:44 0° 343° (NNW) 3,401 6.3 -21.9°
Reaches altitude 10° 20:51:41 10° 357° (N) 2,460 5.2 -22.3°
Maximum altitude 20:56:11 24° 50° (NE) 1,672 3.6 -22.9°
Enters shadow 20:57:17 23° 67° (ENE) 1,727 3.6 -23.0°
